Theta_e
327 328 328 328 326 324 323 321 318 318 318 319 319 320 322 326 328 328 329 329 328 328 327 328 328 327 327 327 327 327 327 326 327 328 328 329 330 330 331 330 328 328 330 330 330 329 328 326 325 323 323 323 324 322 319 318 317 316 316 316 316 317 318 318 318 318 318 319 320 321 323 324 326 328 329 331 332 332 333 332 332 333 333 331 332
329 330 329 328 325 323 323 321 318 318 317 319 319 321 325 329 330 330 330 329 329 329 330 330 329 329 329 329 328 328 328 328 328 328 328 328 329 329 329 330 329 329 330 330 330 330 329 327 326 325 324 323 324 323 320 318 317 316 316 316 316 317 317 317 317 317 317 317 318 319 320 321 324 326 328 331 332 332 332 333 333 333 333 332 331
329 331 330 328 325 324 323 321 318 318 319 320 322 323 327 330 332 332 331 329 329 329 330 330 330 330 330 329 328 329 329 329 328 328 328 329 329 328 327 328 328 328 328 328 329 330 330 329 328 327 326 325 324 323 321 318 317 317 317 318 317 317 317 317 317 317 317 317 318 318 319 320 322 324 327 329 332 333 332 332 333 333 333 333 333
331 333 331 328 327 326 324 321 319 318 320 323 325 327 329 331 332 331 330 330 330 330 331 330 330 330 330 329 329 329 329 329 328 328 329 329 328 328 327 327 326 326 324 324 325 328 330 330 329 328 327 326 325 324 322 319 318 318 319 319 318 317 317 317 317 317 317 318 319 320 320 320 322 324 326 329 332 334 333 332 333 333 333 333 334
335 336 332 331 330 328 325 324 321 320 322 325 329 331 332 333 333 331 330 330 330 331 330 330 330 330 329 329 329 329 330 329 329 329 329 328 328 328 328 327 326 324 324 323 324 327 330 330 330 329 328 327 326 325 323 320 318 319 320 320 319 318 318 317 317 317 318 319 320 321 321 321 322 324 327 330 333 335 335 334 334 334 334 333 332
338 337 335 334 332 328 328 327 324 322 324 329 332 333 334 334 333 331 330 330 330 330 330 330 329 328 328 329 329 329 330 329 329 328 328 328 328 328 328 327 326 326 326 325 325 326 328 329 329 329 328 328 326 326 325 322 320 320 320 320 320 319 318 317 317 317 318 319 319 320 321 322 322 323 327 330 332 334 335 335 335 336 335 334 332
341 339 338 337 333 329 329 327 326 327 328 330 332 332 333 332 332 330 330 330 331 330 329 327 325 326 328 330 329 328 328 327 328 328 328 329 329 329 329 328 328 328 326 323 322 322 323 324 326 327 328 327 327 326 326 325 323 321 320 319 319 318 318 317 317 317 318 318 319 320 321 322 322 323 325 329 332 334 334 335 336 336 335 334 332
343 341 341 337 332 330 329 328 330 331 332 333 331 330 330 329 329 329 328 329 328 327 326 324 324 326 328 328 327 327 327 327 328 328 328 329 329 329 329 328 328 327 324 321 321 321 321 321 323 325 326 327 327 327 326 326 325 322 320 319 319 319 319 318 317 317 317 318 319 320 321 322 322 323 323 326 330 333 334 334 335 335 335 335 334
343 343 341 334 330 329 330 333 334 333 334 334 331 329 330 329 327 326 324 324 325 324 324 324 323 325 326 327 328 328 327 327 327 327 327 328 327 328 328 328 327 326 323 322 322 321 321 321 322 325 326 326 326 327 327 327 327 325 322 320 319 320 320 319 318 317 317 318 318 320 321 322 323 323 323 324 326 330 332 334 335 335 335 335 335
342 343 339 332 329 329 331 335 336 335 336 335 331 329 330 328 325 323 321 323 324 325 326 327 326 326 327 328 329 328 327 326 326 327 327 327 326 326 326 326 327 326 325 325 324 323 322 321 323 324 326 326 326 327 327 327 327 326 324 322 320 320 321 320 319 317 317 317 318 319 321 321 322 323 323 323 324 326 329 332 334 335 336 336 335
342 340 336 333 331 329 329 334 336 336 337 335 330 328 328 326 323 322 322 323 325 328 329 329 329 328 328 329 328 327 326 326 326 326 326 326 326 325 325 325 326 326 326 325 326 325 322 322 324 325 325 325 325 325 325 324 325 325 324 322 322 321 321 321 319 317 317 318 318 318 320 321 321 322 323 323 323 324 326 329 332 334 335 336 336
339 337 335 334 332 328 327 332 335 335 335 333 329 328 327 325 324 324 324 326 328 330 331 332 331 329 329 328 328 327 327 326 326 326 325 325 324 324 325 325 326 325 325 325 326 325 323 322 323 323 323 324 323 323 321 321 322 323 321 322 322 321 321 320 318 317 317 317 317 318 319 320 321 322 323 323 323 323 324 326 329 333 335 336 337
337 336 336 336 333 327 327 331 333 331 329 328 327 327 327 326 325 325 327 329 331 332 333 334 332 330 329 328 328 327 327 326 325 325 325 325 324 325 325 326 326 325 325 325 325 325 324 322 322 321 323 324 323 321 320 319 320 320 319 321 321 321 321 320 318 317 317 317 318 318 319 320 321 322 323 324 324 324 323 324 327 330 333 336 337
337 336 337 337 334 329 329 331 329 326 325 326 326 326 325 325 326 327 330 331 333 334 334 334 333 330 328 328 328 328 327 327 326 325 326 327 326 326 325 325 325 324 323 324 324 324 324 324 322 322 323 323 322 321 320 320 319 319 319 320 321 321 321 320 318 318 317 317 317 318 318 320 321 323 323 324 324 324 324 324 326 328 331 334 336
336 336 337 338 336 335 335 331 327 326 327 327 327 326 326 327 327 329 331 333 333 334 335 335 334 331 329 328 328 328 327 327 327 327 328 328 328 327 326 326 325 323 323 323 323 323 324 324 322 322 322 322 322 321 321 320 319 318 319 320 320 320 320 320 319 318 318 317 317 317 318 320 322 323 323 324 324 324 324 324 325 327 329 332 335
337 338 337 338 338 339 337 330 327 328 328 328 328 328 329 329 329 331 333 334 334 334 334 334 334 332 329 328 328 328 328 328 327 327 328 328 328 327 327 327 326 323 321 322 323 324 324 323 322 322 322 322 322 322 321 321 319 318 318 319 320 320 320 320 319 319 319 319 317 316 318 321 322 323 324 324 325 325 324 324 325 326 328 331 333
338 339 337 339 340 341 336 330 327 328 328 329 330 330 330 331 331 332 333 334 333 333 332 332 332 331 329 328 328 328 328 327 327 326 327 327 327 327 327 327 326 323 321 321 322 323 324 323 323 322 322 323 322 321 320 320 318 318 319 320 320 320 320 321 320 319 320 319 317 317 320 321 322 323 324 326 326 326 325 324 325 326 329 332 334
339 337 334 338 341 342 338 333 329 328 328 329 331 331 332 332 332 333 333 333 332 331 330 330 330 330 330 329 329 328 327 327 326 326 326 326 326 327 327 327 325 322 321 321 322 322 323 323 323 323 323 323 322 321 320 320 319 319 320 320 320 319 321 321 320 320 320 318 316 318 319 320 322 323 325 327 328 328 326 326 325 326 328 332 335
339 334 333 337 340 340 339 337 332 329 331 332 332 332 332 332 333 332 331 331 331 330 330 330 331 330 329 328 327 327 327 327 326 325 325 325 326 327 326 325 322 321 321 321 321 321 322 322 322 323 323 322 322 321 321 320 320 320 321 320 320 320 321 322 321 320 319 317 316 317 318 319 321 323 325 328 330 330 328 327 325 325 328 331 334
337 333 334 337 338 338 339 338 335 334 335 335 334 333 333 333 333 332 331 331 331 330 330 330 331 330 327 326 326 326 327 327 325 323 324 324 325 326 325 322 321 321 320 320 320 320 321 321 321 322 323 322 321 321 321 321 321 322 322 321 321 321 322 322 321 320 318 316 316 317 318 320 321 322 324 328 331 331 330 329 327 325 327 331 334
337 334 337 339 339 339 339 337 337 337 337 335 333 333 333 333 333 332 332 332 331 329 329 330 330 328 326 326 326 326 328 328 326 323 322 323 324 325 323 322 321 321 321 320 321 321 320 320 321 322 322 322 321 321 321 321 322 323 323 322 321 321 321 321 320 319 318 316 315 316 318 320 320 321 323 328 332 331 331 330 328 326 327 330 333
337 338 340 340 338 337 336 335 336 337 335 333 332 333 333 333 333 332 331 330 329 327 327 329 329 327 327 326 327 327 328 328 326 323 322 323 324 324 323 322 321 321 321 321 321 320 321 320 321 322 322 322 321 320 321 323 323 323 322 321 321 320 320 320 321 319 317 316 315 316 318 319 320 321 322 326 332 333 332 331 329 327 327 329 333
338 339 339 338 337 336 336 336 337 337 334 332 331 332 333 333 332 331 329 328 327 326 326 328 328 327 327 327 327 328 328 326 324 322 322 322 323 323 322 322 321 321 321 320 320 320 320 321 322 322 322 322 321 321 322 324 323 322 322 320 320 321 321 321 321 319 317 315 315 314 316 319 320 320 321 324 329 334 334 333 330 328 327 329 332
337 339 339 339 339 338 337 337 338 336 334 332 332 333 333 332 331 330 329 328 326 325 326 328 328 327 327 327 327 327 327 325 323 321 321 322 322 322 322 322 322 321 319 319 319 319 320 321 322 322 322 322 321 322 323 323 322 321 321 320 320 321 321 321 321 319 316 316 315 314 316 318 319 320 320 321 326 332 334 332 331 329 328 329 333
338 338 338 338 337 337 337 337 337 335 333 332 333 333 332 331 330 330 329 326 325 326 327 327 327 327 327 328 327 327 326 324 322 321 321 322 322 322 322 321 320 318 318 318 319 319 320 321 322 322 322 322 322 322 322 321 320 320 321 320 321 321 321 322 321 319 317 316 316 314 315 317 319 321 320 320 324 331 334 332 331 330 328 329 334
336 336 335 334 332 332 333 334 335 335 334 334 334 333 332 332 331 329 327 326 326 327 327 326 327 327 327 326 325 325 323 322 321 321 321 321 322 322 322 320 317 317 317 318 319 320 321 322 322 322 322 322 322 322 321 320 320 320 320 320 321 321 322 322 322 320 317 317 317 314 314 316 318 320 321 320 321 327 333 334 333 331 329 331 335
332 332 332 331 329 328 330 332 335 336 335 334 333 332 331 331 329 327 326 326 327 327 326 326 326 324 323 322 322 322 321 321 321 320 320 321 322 322 320 317 315 315 316 318 319 320 321 322 323 323 322 323 322 321 320 320 320 320 320 320 320 321 322 322 322 321 318 317 318 316 315 316 317 319 321 321 319 321 328 333 335 334 333 333 335
330 331 330 329 327 327 329 331 333 333 333 332 332 331 329 329 327 326 327 327 328 327 326 325 324 323 322 322 321 321 320 320 320 320 321 322 322 321 318 315 312 312 314 316 319 320 321 322 323 323 322 322 322 321 320 320 320 320 320 320 320 321 321 322 322 322 320 318 318 318 316 315 316 317 319 321 320 319 321 326 332 335 336 335 335
330 328 327 325 325 326 328 329 331 332 332 331 331 329 328 327 327 327 327 328 327 326 325 325 324 324 323 321 320 320 320 320 321 321 321 322 321 319 316 312 310 310 311 314 317 320 321 322 322 321 321 321 320 320 319 319 319 319 319 320 320 320 320 321 321 322 321 319 318 318 318 316 315 316 318 319 321 320 319 320 324 329 332 334 335
324 323 325 326 327 328 330 332 332 332 331 330 330 328 328 328 328 328 327 326 326 326 326 325 325 324 322 321 320 320 320 321 321 322 322 322 320 316 312 309 308 309 311 314 317 319 320 321 321 320 320 319 319 319 319 319 319 319 319 319 319 318 319 319 320 320 321 321 319 318 318 317 316 316 316 317 319 321 320 319 319 321 324 326 328
324 327 331 332 331 332 333 333 332 331 330 329 329 328 328 327 327 327 326 325 326 326 325 325 324 322 321 320 320 320 321 321 322 322 321 319 315 312 310 309 309 309 310 314 318 320 320 320 320 319 319 319 319 319 319 318 318 318 318 318 317 317 317 318 319 319 320 321 320 318 318 318 316 315 316 316 317 319 321 320 319 318 319 321 322
328 331 333 333 332 332 332 333 331 330 330 329 328 328 327 326 326 326 326 326 326 326 325 324 322 321 320 320 320 321 321 321 321 320 318 315 312 311 310 310 310 310 309 313 317 319 319 319 319 318 318 318 318 319 318 318 317 317 317 316 316 316 316 317 317 318 318 320 321 320 319 318 317 316 316 315 315 317 320 322 322 320 319 318 319
322 326 330 331 331 331 331 331 330 330 330 328 327 327 327 326 327 327 327 327 326 325 324 322 321 321 320 319 319 318 318 318 317 315 313 311 310 311 311 311 311 310 310 313 317 319 318 318 318 318 318 318 318 318 318 317 317 316 315 315 315 315 314 314 315 316 316 318 319 320 320 320 319 319 318 316 315 315 317 320 323 323 321 319 318
318 321 327 331 331 331 331 330 330 330 330 328 327 327 328 327 328 327 327 327 326 325 323 322 321 321 320 317 315 313 313 312 311 311 310 310 310 312 312 311 311 311 312 315 317 318 317 318 318 317 317 316 316 316 316 315 314 313 312 312 312 312 312 312 312 313 314 315 317 319 320 320 320 321 320 319 318 316 316 317 320 322 322 321 318
319 323 328 331 331 330 329 328 328 328 329 328 328 328 328 328 328 327 327 326 325 324 323 323 322 321 320 317 314 312 311 311 310 310 310 310 310 311 311 311 312 313 314 315 317 317 316 317 316 315 315 314 313 313 312 312 311 310 309 309 309 309 309 309 309 309 310 313 314 317 319 320 320 321 321 320 320 320 319 318 319 320 322 322 320
323 327 330 330 329 328 327 326 327 327 328 328 328 327 328 328 327 327 326 325 324 323 322 322 321 320 319 318 315 313 312 312 311 311 311 311 311 310 310 310 312 313 314 315 316 316 315 315 314 312 312 311 311 310 310 309 309 309 308 307 307 307 308 308 307 307 307 309 312 314 317 318 319 320 320 320 321 321 321 321 321 321 322 322 320
326 329 329 328 328 328 327 327 326 326 327 328 328 327 328 327 326 325 324 323 323 322 322 322 320 319 319 318 315 314 312 312 311 311 311 311 310 309 309 310 311 313 314 314 314 314 312 311 310 310 309 309 308 308 308 308 307 307 307 306 306 306 306 306 306 306 305 306 308 311 313 315 317 318 319 319 319 319 320 321 322 322 323 322 320
327 327 327 327 328 328 328 328 327 326 327 328 328 328 327 326 325 324 323 322 322 321 321 320 319 318 318 317 315 313 312 312 312 311 310 311 310 309 309 311 313 313 314 313 312 311 310 309 308 308 308 307 307 307 306 306 306 306 305 305 305 305 305 305 305 305 305 304 305 307 309 311 313 315 317 317 317 318 319 320 321 322 322 322 322
326 327 327 326 327 328 328 328 327 327 327 328 327 326 326 324 323 322 321 321 321 320 320 320 318 317 317 316 314 313 312 312 312 311 311 310 310 308 309 311 312 312 311 311 311 311 310 308 307 307 306 306 305 305 305 305 304 304 303 303 303 303 303 303 303 304 303 303 304 304 305 307 309 311 314 315 315 315 317 318 319 320 321 322 322
327 328 328 327 327 326 326 326 327 327 327 326 326 325 324 323 321 320 320 319 319 319 319 318 316 315 314 314 313 312 312 312 311 311 310 310 309 308 310 311 311 311 310 310 310 310 309 307 306 306 306 305 304 304 304 303 301 301 301 300 300 300 300 300 300 300 301 302 302 302 302 303 305 307 310 311 311 312 314 316 317 318 320 321 322
328 328 327 327 327 326 325 325 326 326 326 326 325 324 323 321 320 320 318 317 317 316 316 315 314 314 313 313 312 311 311 311 310 309 309 308 308 308 310 310 310 310 310 309 309 308 307 306 306 306 305 303 303 302 302 300 299 299 299 298 298 298 298 297 297 298 299 300 301 301 300 301 302 304 306 307 307 308 310 312 314 316 318 320 321
327 327 326 326 326 325 325 325 325 325 325 325 324 323 322 321 320 319 318 317 316 315 315 315 314 314 313 312 311 310 309 309 309 308 308 307 307 307 308 308 308 309 309 308 306 305 304 305 306 306 304 302 301 301 300 298 297 296 296 295 295 295 295 295 295 296 297 299 300 300 299 298 299 301 302 304 305 305 306 307 310 312 315 318 319
326 326 325 325 325 325 324 324 325 325 324 324 323 323 322 321 320 319 318 317 316 316 316 315 314 313 312 311 311 309 308 307 307 307 307 307 306 306 306 306 306 307 307 306 305 303 302 303 305 305 303 301 300 300 298 296 295 294 293 294 294 294 294 294 294 294 296 297 298 297 297 296 297 298 299 302 303 303 303 303 305 308 311 314 316
326 326 325 325 325 324 324 324 324 324 324 323 323 322 321 321 320 319 317 316 316 316 316 315 314 313 312 311 311 310 308 307 306 306 306 306 306 306 306 305 305 305 304 304 304 303 302 302 303 303 300 299 298 297 295 293 293 293 293 293 294 294 294 294 294 294 295 296 296 296 296 295 295 296 297 300 301 301 301 301 302 304 307 310 313
324 324 324 323 322 322 321 322 322 322 322 321 320 320 320 320 319 317 316 316 316 316 314 314 313 313 312 311 311 309 307 306 306 305 304 305 306 306 305 305 305 305 304 303 304 303 301 299 299 299 297 296 296 294 293 293 293 293 293 293 294 294 294 294 294 294 295 295 296 295 295 295 295 295 296 298 300 300 300 300 300 301 304 306 309
323 323 321 320 320 320 319 319 319 319 318 318 317 317 317 317 317 316 316 316 315 314 313 312 312 311 311 311 310 307 306 305 305 304 304 304 305 305 305 305 304 304 303 303 303 300 298 296 296 295 295 295 294 293 293 293 293 293 293 293 293 294 294 294 294 294 294 295 295 295 295 295 295 295 295 296 298 299 300 299 298 299 301 303 305
321 321 319 318 318 318 318 318 318 317 317 317 316 316 316 316 316 316 315 315 314 314 313 312 312 311 311 310 308 306 306 306 305 305 304 304 304 304 304 304 304 303 303 303 302 298 295 294 293 293 293 294 293 293 293 293 293 293 293 293 293 293 293 293 293 293 294 294 294 295 295 295 295 294 295 295 297 298 298 298 298 298 299 301 303
320 319 318 317 317 317 317 317 317 316 317 317 316 316 316 316 315 315 315 314 314 313 313 312 311 311 310 309 307 306 306 305 305 305 305 304 304 304 304 303 303 302 302 301 299 295 293 292 292 292 293 294 294 293 294 293 293 294 294 293 293 293 293 293 293 293 293 294 294 294 295 295 295 294 294 294 296 297 297 297 297 297 298 299 301
318 318 317 317 317 317 317 316 316 315 315 314 314 315 315 314 314 314 313 312 313 313 312 310 309 309 309 308 307 306 305 304 304 304 305 305 304 304 303 303 303 302 300 299 297 294 293 293 293 293 293 294 294 294 293 293 293 293 293 293 293 293 293 293 293 293 293 293 294 294 295 295 294 294 294 294 295 296 296 296 297 297 297 298 300
316 316 316 316 316 316 315 315 315 314 313 312 312 312 313 313 312 312 311 311 311 311 310 309 308 308 307 306 306 305 305 304 304 304 304 304 304 304 304 303 301 300 299 299 297 295 294 295 295 295 294 294 294 294 294 293 293 293 293 293 293 293 293 293 293 293 293 293 293 294 294 294 294 294 294 294 294 295 296 296 296 297 297 297 299
316 315 314 314 315 314 314 314 314 314 313 313 313 312 312 312 312 312 311 311 311 310 309 307 307 307 306 305 305 305 304 304 304 304 304 304 303 304 304 302 299 297 297 298 297 296 296 296 296 295 295 295 295 295 294 294 293 293 293 293 293 293 293 293 293 292 293 293 293 294 294 294 294 293 293 294 294 294 295 295 295 296 297 298 298
Wind_Speed
25 23 20 17 14 12 10 8 7 8 8 8 9 8 6 4 2 1 3 4 5 6 6 9 13 13 12 14 16 14 13 12 12 13 13 14 15 14 14 14 14 13 13 14 14 16 17 17 18 17 17 17 16 15 16 16 18 19 21 24 26 25 25 25 28 37 40 38 37 39 39 39 40 37 35 35 34 32 31 33 33 34 33 32 30
27 24 21 18 14 12 10 9 7 8 8 9 8 7 7 6 3 5 5 6 8 9 9 11 13 13 13 15 16 16 16 15 15 16 15 15 15 15 16 16 16 15 15 16 16 17 18 18 19 18 18 18 17 16 17 17 18 19 21 24 27 26 25 28 30 36 42 42 40 40 39 38 39 39 35 34 34 32 32 31 32 33 34 34 33
28 26 22 18 14 12 11 10 8 8 9 10 8 6 6 5 4 7 8 9 10 10 10 12 12 12 14 16 16 16 17 18 18 18 17 17 16 16 15 15 15 16 17 17 17 17 19 19 19 19 19 19 18 17 18 18 18 19 22 24 27 27 27 29 31 36 42 44 43 42 40 37 37 38 35 34 34 32 32 32 31 33 34 34 35
30 27 22 18 15 12 11 10 7 7 9 10 7 6 5 4 5 8 9 9 10 10 10 11 12 13 15 16 16 16 17 17 17 17 17 18 18 16 15 15 15 17 17 17 18 18 19 20 20 20 20 21 20 18 18 18 19 21 23 25 26 28 29 30 32 36 41 45 45 42 41 38 36 35 34 34 34 31 31 31 31 32 34 35 36
32 28 23 19 16 13 12 10 6 7 10 10 9 8 6 5 6 8 8 8 9 11 13 14 15 16 15 14 14 13 13 14 16 17 18 19 18 16 16 16 16 16 16 15 16 17 18 20 21 21 22 23 23 21 19 19 21 23 25 26 27 28 30 31 33 36 40 44 45 43 40 38 36 34 31 31 32 30 30 31 30 30 32 34 36
32 29 24 19 16 14 12 10 7 8 11 12 11 11 9 9 10 11 11 12 12 14 16 17 17 16 13 13 14 14 14 15 17 19 18 17 16 16 16 16 16 15 15 15 16 17 18 20 22 22 23 24 24 23 21 21 22 24 26 27 27 28 29 30 33 36 40 42 44 44 41 38 37 35 30 28 31 30 30 30 30 30 30 32 34
32 29 24 19 17 15 12 9 8 9 12 12 11 11 11 12 14 14 14 15 16 18 18 17 16 14 13 16 17 17 16 16 16 17 16 16 16 16 15 15 15 15 15 15 15 16 17 19 21 21 22 24 25 24 24 23 23 24 26 27 27 26 27 29 33 37 41 43 43 44 42 38 38 37 32 27 28 30 30 31 32 32 30 31 33
33 29 24 19 16 14 11 9 10 10 12 12 11 10 11 12 14 14 15 16 17 18 17 15 14 13 14 16 15 14 15 15 15 16 17 17 17 17 15 15 15 15 14 14 15 16 17 18 19 19 21 22 24 25 26 26 25 25 26 27 26 26 26 29 33 37 41 42 43 43 42 39 38 38 35 30 27 28 28 30 33 33 31 31 33
35 31 25 19 14 11 10 11 12 12 13 13 12 13 13 14 14 14 13 13 14 13 12 12 12 12 13 13 12 14 17 17 16 15 15 16 18 18 17 16 16 15 15 15 16 16 17 18 18 19 20 22 24 26 27 28 27 26 26 26 26 26 27 29 32 37 41 41 42 43 42 39 39 39 37 34 30 28 27 28 32 34 33 33 34
35 33 27 19 12 9 11 14 16 16 16 16 14 15 15 15 13 12 11 11 11 11 11 11 12 12 12 12 13 17 18 17 15 15 16 17 19 20 20 19 17 17 17 18 18 18 19 19 19 18 19 22 24 26 27 28 29 28 27 26 25 25 28 29 31 36 40 40 41 43 42 41 40 39 39 37 35 32 29 27 30 33 33 35 37
36 34 29 18 10 8 13 17 19 19 19 19 17 16 15 13 12 11 11 12 12 12 13 12 13 13 13 14 16 18 18 18 17 17 18 19 19 20 20 20 19 19 20 19 19 19 20 20 19 18 19 21 24 26 27 27 28 27 27 26 24 25 28 29 29 34 37 38 40 42 42 43 43 41 40 39 38 36 32 29 30 31 33 35 37
36 34 28 18 9 9 15 20 23 23 23 22 19 17 14 12 12 12 12 12 13 14 14 14 14 14 15 16 17 18 19 19 19 20 20 19 18 19 20 20 21 22 22 21 20 20 19 19 19 19 20 22 24 25 24 24 23 23 24 25 25 25 27 26 27 32 36 37 40 42 43 44 44 43 42 41 39 38 36 32 30 31 32 35 38
36 32 26 16 11 13 19 24 26 25 24 22 19 16 15 13 13 13 13 13 14 15 15 16 15 15 16 17 19 20 20 20 21 22 21 18 17 19 20 21 22 23 24 23 22 20 18 18 19 19 20 21 22 22 22 21 21 22 23 24 25 26 27 25 26 30 35 39 41 43 45 46 47 46 43 41 40 39 39 36 33 32 32 35 39
37 31 24 18 18 19 23 25 25 23 21 19 17 15 15 14 14 14 14 14 15 16 17 17 16 15 17 18 20 21 21 21 23 23 22 19 19 20 21 22 23 23 24 24 23 22 20 19 19 20 20 20 20 20 20 20 21 22 23 24 26 27 27 25 26 31 36 40 44 46 47 46 46 45 41 39 39 40 41 39 36 34 32 32 36
34 28 23 22 23 25 27 25 23 21 19 18 16 15 15 15 15 15 15 16 16 17 17 18 18 17 17 18 20 22 22 21 22 23 23 22 20 21 22 22 23 23 24 24 23 21 20 19 19 19 20 20 20 20 20 21 22 24 25 26 27 29 29 27 28 32 35 41 46 48 48 48 46 44 41 39 39 40 41 40 36 35 34 32 34
29 24 24 25 25 29 29 25 23 22 20 18 18 17 17 17 16 15 17 17 17 17 18 20 20 18 17 18 20 20 20 20 21 21 21 20 20 21 23 22 23 24 24 22 21 19 18 18 18 19 20 21 22 22 22 23 23 25 27 28 29 31 31 29 30 32 35 41 48 49 49 50 48 44 40 37 37 39 40 39 37 35 35 34 34
28 24 26 27 30 32 29 25 23 22 21 20 20 20 20 19 18 17 17 18 17 17 17 18 18 17 16 17 18 19 22 24 25 23 22 20 19 20 21 21 22 24 25 23 21 19 19 19 19 20 20 21 23 24 22 23 25 27 29 29 30 32 32 31 31 34 37 42 48 49 48 50 48 43 38 32 34 38 41 42 40 36 33 34 35
29 25 27 30 32 33 30 25 23 22 22 22 22 22 22 22 20 18 17 17 17 16 16 15 14 15 16 17 20 22 25 27 27 26 26 24 19 18 20 21 23 25 24 21 20 20 19 20 20 20 19 21 24 24 23 24 27 28 28 28 30 32 33 32 33 37 40 45 49 49 48 49 47 42 35 27 30 37 43 47 43 38 36 35 35
26 26 29 31 33 33 31 27 25 24 24 25 24 24 24 23 20 17 14 15 16 15 14 13 13 14 17 19 22 24 26 27 26 26 26 23 19 19 20 21 22 23 21 19 19 19 19 20 20 18 18 20 22 23 24 26 27 27 27 28 30 33 33 33 34 37 41 46 50 50 50 51 48 43 35 23 23 31 39 45 44 42 42 38 34
26 28 30 33 35 35 32 29 27 26 27 28 27 26 25 23 19 16 14 15 15 15 14 14 16 17 19 21 23 24 25 26 24 22 22 22 20 19 19 19 20 20 19 18 19 19 18 18 18 16 16 19 21 23 24 26 26 26 26 27 30 32 32 32 32 34 37 43 49 50 51 51 50 46 39 23 16 21 30 40 45 44 44 41 36
25 29 31 33 34 33 30 28 27 26 26 26 25 25 23 21 19 16 15 16 16 17 18 19 19 20 20 21 22 23 25 25 22 19 20 21 19 18 17 16 17 17 17 17 18 18 18 17 16 15 15 18 20 22 23 24 25 25 26 27 28 30 29 27 28 29 33 40 47 50 51 52 52 49 42 25 12 14 22 34 43 45 45 45 39
27 30 31 32 31 28 27 26 25 24 25 25 25 24 22 20 18 17 16 16 15 18 19 20 20 20 21 21 21 22 22 21 19 18 19 19 19 17 16 14 14 15 17 18 19 19 19 18 15 14 14 17 19 20 21 22 23 24 26 26 27 27 24 24 26 27 31 39 46 50 52 53 53 52 47 30 12 11 16 24 36 43 46 47 41
27 29 29 29 27 25 25 25 25 25 24 25 25 24 21 19 17 15 15 15 17 18 17 18 20 21 21 22 22 21 20 18 17 18 19 20 18 16 14 13 14 16 18 19 19 19 18 17 15 14 15 16 18 19 20 21 22 24 25 25 25 24 22 22 24 25 30 39 45 49 52 53 53 53 50 39 19 8 11 14 26 38 44 46 41
22 27 28 27 27 26 25 25 26 25 24 25 24 22 20 17 15 14 14 17 19 17 16 17 19 20 20 21 21 20 19 18 18 18 19 18 15 13 13 14 15 17 18 18 18 18 18 16 15 14 15 16 17 18 19 20 22 23 22 22 23 22 21 22 22 23 29 36 43 48 50 51 52 51 49 46 29 6 9 11 16 29 38 43 40
18 20 21 21 22 22 21 22 23 24 23 23 21 19 18 18 17 16 17 18 16 14 14 15 17 17 18 19 19 19 18 18 18 17 15 13 12 13 14 15 16 16 16 16 16 16 16 15 13 13 14 16 16 17 19 20 21 20 19 20 21 20 20 21 21 22 27 32 38 46 49 48 49 48 48 48 36 9 8 9 10 19 30 37 36
12 13 14 14 16 16 16 18 20 22 22 21 19 19 18 18 19 20 18 14 13 13 14 14 15 16 18 20 19 18 19 18 17 15 13 12 12 14 14 14 14 14 14 14 14 14 13 11 11 12 14 14 15 17 20 19 17 16 16 17 18 18 19 21 21 20 24 28 33 41 46 46 46 47 48 52 47 26 4 10 11 13 23 34 35
10 10 10 11 12 12 12 15 17 20 21 21 19 19 19 20 21 20 15 13 14 14 14 15 16 17 19 21 20 19 18 18 15 13 12 12 13 14 13 12 12 11 11 11 11 10 9 8 9 11 12 14 16 17 17 14 12 12 14 15 16 18 19 20 20 19 20 23 28 34 41 45 45 46 48 51 52 44 23 5 14 17 21 29 33
8 6 6 7 8 9 11 14 16 18 19 19 18 17 17 17 16 15 14 15 15 15 16 17 18 19 20 21 21 19 18 16 14 12 12 12 12 12 11 11 11 10 10 11 10 9 9 9 9 10 12 14 15 13 10 8 8 10 12 13 15 18 19 19 21 20 18 20 23 28 35 41 44 46 47 48 50 50 42 24 6 15 21 26 29
7 6 7 8 8 9 12 14 16 18 18 17 15 13 12 12 12 13 14 15 16 16 17 18 18 19 20 20 20 18 16 14 12 12 12 12 11 11 11 11 11 9 8 10 11 10 10 11 11 10 10 10 9 7 6 6 7 9 12 14 16 19 20 21 23 23 20 18 21 24 29 35 40 43 45 46 47 48 47 42 28 12 7 14 20
6 6 6 7 7 8 10 12 13 14 14 13 12 12 12 12 12 13 14 16 16 16 16 16 17 18 18 17 16 14 13 12 12 11 11 10 9 10 10 11 11 10 9 8 10 11 10 10 9 8 7 5 5 6 7 8 10 11 14 16 17 18 19 20 22 24 22 19 19 21 24 29 35 39 42 45 45 45 44 44 41 35 26 16 8
3 2 4 7 8 9 11 13 13 13 13 14 14 14 13 13 14 15 16 16 15 15 14 16 17 16 15 14 13 12 11 11 10 9 8 8 8 9 10 10 11 11 9 8 8 9 8 7 6 6 5 4 5 7 10 12 14 15 15 15 16 17 18 18 20 22 22 21 19 19 20 24 28 33 38 41 42 43 42 42 42 42 39 34 29
6 8 9 10 9 10 13 14 14 15 15 16 16 15 14 14 15 16 16 15 14 13 14 14 14 13 11 10 9 9 9 8 7 7 6 6 7 8 9 10 10 9 8 8 7 7 6 5 4 3 3 4 6 8 10 12 14 14 14 14 15 16 16 18 19 20 21 21 20 18 18 19 22 26 30 35 38 40 40 40 40 42 41 40 37
6 9 12 13 12 12 13 14 14 16 16 15 14 14 14 15 15 15 14 13 13 12 11 11 10 9 7 6 5 5 4 4 4 4 4 5 6 6 9 11 11 9 8 8 6 5 5 4 3 3 5 6 6 6 7 8 9 11 12 12 13 14 15 17 18 18 19 20 19 18 18 17 18 19 23 27 31 35 37 38 38 38 39 40 40
5 9 13 16 16 15 15 14 14 15 15 14 13 13 13 14 14 13 13 12 12 11 10 9 8 7 6 4 3 2 1 1 3 4 5 6 6 5 9 13 13 10 9 7 4 4 4 4 5 5 5 5 4 3 3 4 6 8 9 10 11 12 14 15 16 18 19 19 19 18 17 17 18 19 20 22 23 26 31 34 35 35 35 35 37
6 9 12 14 15 14 12 12 13 14 15 15 14 14 15 15 14 13 12 12 11 11 10 9 9 8 6 4 3 2 3 4 6 7 7 7 6 5 8 10 10 9 7 5 3 3 3 3 4 4 3 3 3 2 3 4 5 7 9 10 11 12 13 15 16 18 18 19 19 18 16 16 18 18 19 20 21 21 24 26 28 30 30 29 32
8 11 12 13 13 13 12 11 12 14 16 17 17 17 17 16 14 13 12 11 10 9 9 10 9 8 8 6 4 3 5 6 7 8 9 8 6 5 6 7 6 5 4 3 3 3 2 2 2 2 3 4 4 4 4 5 6 7 9 10 11 12 14 15 16 17 17 18 18 18 17 17 17 17 18 19 20 20 21 22 22 24 25 25 27
9 12 13 12 12 12 12 12 13 15 16 16 16 16 16 14 13 12 11 11 10 8 8 9 10 10 10 8 4 4 6 5 5 7 9 9 8 7 5 4 3 2 2 3 4 4 3 2 2 1 2 4 4 5 5 5 6 8 9 11 12 13 14 15 16 16 16 16 16 17 17 17 18 17 17 18 20 20 20 20 20 21 22 22 23
9 10 11 12 12 12 11 12 13 15 15 15 14 14 14 13 13 13 11 10 10 9 8 10 11 12 11 9 8 8 8 6 4 5 7 9 9 7 5 2 2 3 5 6 5 4 3 2 1 1 3 4 6 7 7 8 9 10 11 12 13 13 14 14 14 14 14 14 13 14 16 17 17 17 17 17 19 20 20 20 19 19 19 20 21
10 10 10 10 12 12 11 12 13 15 16 15 13 13 13 12 13 13 11 10 11 11 10 11 12 11 10 10 11 11 9 7 6 6 8 8 7 7 5 4 5 6 6 6 4 3 2 3 3 3 5 6 8 9 10 11 11 11 11 12 13 13 13 13 13 12 12 12 11 12 13 15 16 16 15 16 18 19 19 20 20 18 17 18 18
11 10 10 11 12 11 11 11 13 15 15 14 11 11 11 11 11 10 9 9 11 13 14 14 12 11 10 10 9 8 9 9 7 7 9 9 7 5 4 5 6 6 5 5 5 4 4 4 4 5 6 8 10 11 12 12 12 12 12 11 11 12 11 11 11 10 10 10 10 10 12 14 15 14 13 14 16 17 17 18 19 19 17 16 16
12 11 11 11 12 12 10 11 13 14 14 12 11 10 11 11 11 10 9 9 10 12 12 12 10 9 10 9 9 8 9 11 8 6 8 8 6 4 4 6 6 6 5 5 5 5 5 5 5 6 7 8 10 12 13 12 11 11 11 10 9 10 9 9 10 10 9 9 9 10 12 14 15 14 13 13 14 15 16 16 17 17 17 16 15
11 10 10 11 12 12 12 12 13 14 14 13 12 11 12 12 13 12 11 10 9 9 9 10 9 10 11 11 11 8 7 11 10 7 7 7 6 3 3 4 5 6 6 6 6 6 6 6 7 8 9 9 11 12 11 10 9 9 9 8 8 8 8 8 10 10 9 8 9 10 11 14 15 14 14 14 14 14 15 16 16 16 16 16 15
9 8 10 11 11 11 11 12 13 14 14 14 14 14 13 13 14 13 12 9 7 8 10 10 10 10 11 11 11 10 8 9 9 7 5 4 2 1 0 0 2 4 6 6 6 7 7 7 9 10 10 11 11 10 8 8 8 8 8 8 8 8 8 8 10 10 9 8 10 10 11 13 15 15 14 15 15 15 16 17 17 17 16 15 15
9 9 10 11 11 11 12 13 14 14 14 14 14 13 13 13 13 13 11 8 6 8 11 12 11 11 11 12 13 14 13 11 8 7 7 6 2 1 2 3 4 6 7 6 6 7 8 9 10 9 9 9 8 6 5 6 6 6 7 7 8 8 8 8 10 11 10 10 10 10 11 13 15 15 14 15 16 17 18 19 19 18 16 16 15
9 9 9 10 11 10 10 10 11 11 11 11 10 10 11 11 11 10 9 7 7 9 10 10 11 13 13 14 16 16 13 9 5 4 4 8 9 3 3 5 6 7 7 7 9 10 10 10 9 7 6 6 5 4 4 4 5 6 7 7 8 8 9 9 10 10 10 10 10 9 11 14 15 15 14 14 15 16 18 19 19 19 17 17 17
8 8 6 5 4 4 3 4 5 5 5 6 6 6 6 7 8 8 8 9 10 9 8 8 10 13 14 15 15 12 7 3 2 7 5 3 9 8 3 3 5 5 5 9 12 12 9 7 6 5 4 3 3 3 4 4 5 6 7 7 8 8 9 9 9 9 9 10 10 9 9 11 13 13 13 13 13 15 16 17 18 19 18 18 18
7 6 3 2 2 1 2 3 3 3 4 5 5 5 5 7 8 10 12 14 14 13 12 11 13 14 15 14 11 6 2 0 1 4 6 1 6 8 5 4 5 7 9 11 12 11 7 4 3 4 4 2 2 3 3 4 5 6 7 7 7 8 8 8 8 9 9 9 10 9 9 9 10 11 11 11 11 12 13 14 16 17 18 18 18
5 4 2 1 3 3 4 5 5 4 5 7 8 10 10 10 11 13 15 16 16 16 14 14 15 16 15 13 9 4 2 1 2 4 6 4 7 9 8 8 8 11 12 12 9 7 5 4 3 4 4 2 2 2 3 4 5 6 7 7 7 7 7 7 8 8 8 9 9 9 8 8 9 9 9 10 10 10 11 12 13 15 15 16 17
4 4 3 4 5 6 6 7 7 7 8 9 10 12 12 11 11 13 14 16 17 17 14 12 12 12 13 12 9 5 5 5 4 4 6 8 9 10 10 9 10 12 14 12 8 6 4 4 4 5 6 4 2 2 3 5 5 5 6 6 7 7 7 7 7 8 8 8 8 8 8 9 9 9 8 9 9 9 9 10 11 12 13 14 15
4 5 6 8 10 11 11 11 12 12 11 10 9 9 10 11 12 13 14 15 17 17 13 9 8 8 9 10 10 8 7 7 6 6 8 9 9 11 12 12 11 11 13 12 9 6 5 4 5 7 8 7 5 4 5 6 6 6 6 6 6 6 7 7 7 8 7 7 7 8 8 8 9 9 8 9 8 7 8 9 9 10 11 12 13
6 5 7 10 12 14 16 16 15 14 14 13 11 10 11 11 12 14 15 16 17 16 11 8 8 8 8 8 8 8 8 8 7 8 10 12 13 15 16 14 10 10 12 10 7 5 5 6 8 9 11 10 9 9 9 9 8 8 7 7 6 6 6 6 6 7 7 7 7 7 7 7 8 9 9 10 9 7 7 9 9 9 10 11 12
Wind_Direction
207 206 206 203 203 204 206 207 211 218 223 228 236 240 225 185 154 253 281 305 315 315 301 307 324 329 323 326 332 334 330 323 311 305 305 302 297 297 300 299 297 295 293 295 296 296 298 299 302 309 313 310 308 309 317 325 332 341 347 346 347 350 347 340 329 323 322 319 315 310 309 308 302 293 287 283 279 273 267 263 261 259 257 256 253
207 206 205 203 203 203 207 210 211 216 222 225 230 226 204 185 216 265 272 286 297 302 303 306 314 317 316 319 323 325 324 324 322 318 317 313 306 301 299 296 295 295 294 293 291 292 295 297 300 303 306 306 304 303 311 322 331 338 343 342 342 345 346 342 336 329 325 324 321 316 312 311 306 298 290 283 279 275 270 267 263 257 254 253 251
208 206 204 202 201 203 209 212 209 212 220 223 222 215 201 198 240 268 269 274 282 287 289 292 298 304 307 309 314 316 315 317 318 315 313 313 311 308 302 295 292 293 295 294 291 290 292 296 299 301 302 302 300 297 303 315 325 332 336 337 338 340 342 342 339 334 327 325 325 322 317 312 306 302 294 283 279 277 270 267 264 258 253 250 249
208 204 200 199 201 204 212 216 213 212 218 222 223 217 213 231 264 271 267 262 264 264 267 275 284 289 292 298 307 308 306 308 310 308 306 306 307 306 303 298 294 293 294 293 291 290 291 294 298 300 300 300 299 294 297 309 318 324 328 331 334 336 338 340 340 337 330 326 325 325 320 312 306 304 299 286 278 275 270 266 263 258 252 248 247
207 203 197 197 203 207 212 218 223 224 220 221 225 228 238 257 260 262 257 247 246 252 261 273 280 282 286 293 300 303 302 300 299 299 300 300 302 303 301 297 293 292 295 296 294 291 291 293 296 298 297 297 298 295 293 302 312 318 323 326 328 331 335 339 340 338 333 328 326 326 321 313 307 305 298 285 276 271 268 265 262 258 254 249 247
206 203 197 198 206 210 213 222 232 225 221 223 227 231 240 246 244 247 253 253 255 263 271 278 280 280 282 285 288 290 288 286 289 294 296 298 302 303 299 295 291 292 296 299 298 294 292 292 294 295 293 294 296 295 292 296 307 316 320 322 324 327 333 339 340 338 335 331 327 326 322 315 310 307 299 285 276 272 267 263 260 259 256 252 248
206 203 200 201 210 214 217 230 236 221 216 218 220 223 229 233 233 239 250 257 264 270 275 277 277 275 275 278 282 283 284 286 290 294 297 300 303 301 299 296 293 295 300 304 306 304 301 298 295 294 293 294 295 296 293 293 301 312 318 319 321 324 330 336 338 337 335 331 328 326 323 317 311 309 303 288 277 273 269 262 259 257 256 252 248
204 202 200 204 212 221 227 237 240 231 223 220 221 227 231 234 239 246 253 259 262 266 271 274 274 272 273 279 286 291 295 295 294 294 297 300 301 300 298 295 294 297 301 305 312 316 315 311 304 299 297 296 297 297 297 294 296 306 315 316 317 320 324 330 333 335 333 330 327 326 324 319 313 310 308 297 282 277 274 265 259 256 254 250 247
203 199 196 201 213 226 233 238 241 238 231 226 228 232 236 242 251 257 261 260 260 263 272 280 282 282 285 288 291 296 298 296 294 297 302 303 304 303 298 294 293 294 295 299 307 315 317 315 310 303 299 300 300 299 298 296 295 299 308 313 313 314 318 322 328 332 332 329 326 325 323 320 315 311 310 304 292 284 281 272 263 257 255 253 250
201 194 191 200 216 223 225 232 237 234 230 232 236 236 238 246 256 265 270 269 271 279 288 293 294 296 296 292 288 292 299 303 303 307 309 307 306 304 299 294 290 288 290 296 303 308 312 314 311 304 298 297 296 296 297 295 293 294 301 306 308 311 316 318 323 329 330 327 325 323 320 318 316 311 307 304 298 288 280 275 270 262 256 255 254
196 190 191 203 216 216 219 227 230 229 228 232 237 238 239 247 257 264 270 274 280 289 294 298 300 299 294 289 288 294 301 306 307 309 311 309 306 303 300 296 290 287 290 294 297 302 310 314 312 307 302 298 297 298 300 299 296 296 299 301 304 310 315 316 321 328 329 327 325 323 318 315 315 311 305 302 299 292 282 276 273 266 257 254 253
192 189 193 202 218 221 221 226 229 227 228 232 236 238 240 247 255 261 267 273 280 285 290 295 299 296 289 288 292 296 300 304 307 308 309 309 307 305 303 299 294 291 291 290 291 296 307 313 312 313 314 311 308 305 303 303 301 298 299 300 303 309 312 314 320 327 330 329 326 323 318 315 312 309 302 298 296 292 285 277 270 265 259 253 250
188 186 189 205 244 239 224 226 229 229 230 233 235 237 242 248 255 261 267 272 276 279 283 288 291 289 286 288 294 299 302 305 307 307 307 308 309 308 306 303 298 294 291 288 287 292 301 308 313 318 321 319 316 310 306 307 305 300 300 301 304 308 311 313 317 324 331 333 327 321 319 316 310 305 300 294 290 285 281 275 266 262 261 255 249
185 184 192 222 253 240 222 225 230 230 231 233 235 240 246 252 258 263 267 270 273 275 277 279 281 284 285 287 292 297 301 305 309 309 308 309 307 306 306 305 302 299 294 289 288 289 292 301 311 319 320 320 320 318 314 310 306 304 305 306 308 311 311 313 318 325 332 335 329 323 321 318 312 307 300 291 282 275 271 270 264 259 259 258 254
181 188 212 241 246 229 223 230 232 230 232 234 237 243 248 253 259 265 266 268 272 276 276 275 277 283 286 286 289 294 299 306 311 309 306 306 304 303 305 307 307 305 300 293 289 286 287 296 309 316 317 320 323 322 317 312 308 308 310 311 312 312 310 311 319 327 333 334 330 326 323 321 317 311 302 291 280 269 263 263 261 256 254 257 257
185 206 238 248 235 224 227 234 232 231 234 236 240 245 248 252 257 263 265 266 271 276 279 280 282 287 291 291 292 294 296 300 301 298 295 297 298 297 297 300 305 308 305 298 292 287 289 297 306 311 314 319 323 321 315 312 312 313 314 315 313 313 311 310 316 325 329 329 328 327 326 326 323 314 305 292 276 264 258 257 256 251 249 252 254
206 229 244 238 228 227 231 234 232 232 235 237 242 246 247 247 250 256 261 265 271 276 281 284 286 287 291 292 290 288 289 292 294 292 289 290 291 290 288 290 301 307 305 298 293 290 293 298 304 307 310 315 321 320 316 315 317 317 316 314 313 314 315 312 314 321 325 326 328 330 332 334 329 320 311 292 267 254 248 246 245 242 240 244 247
219 233 234 228 227 230 234 236 236 237 239 239 241 245 245 243 245 251 258 264 269 274 283 291 291 286 284 285 286 287 289 294 298 299 296 292 284 279 281 289 301 306 303 297 293 291 293 297 301 305 308 313 317 319 320 320 319 317 315 314 315 316 318 316 316 321 326 329 331 333 337 340 336 330 323 298 262 247 239 236 236 233 230 233 239
224 226 223 221 226 232 237 238 240 243 241 238 238 241 242 240 242 249 255 260 266 273 285 291 284 277 280 286 291 292 294 300 305 306 303 295 281 277 286 297 303 302 300 299 297 295 295 297 301 304 308 310 314 318 320 319 317 317 315 316 317 317 319 319 319 323 330 334 336 338 341 343 342 341 338 312 263 246 238 234 231 228 224 224 230
225 219 217 221 226 233 237 238 241 242 237 236 238 238 237 236 240 247 248 249 257 271 280 276 271 274 284 292 295 296 297 301 306 309 306 295 283 282 292 299 299 297 298 301 301 301 300 300 303 307 307 308 313 318 319 316 315 317 318 319 320 320 322 323 322 327 334 338 339 342 346 347 346 348 349 334 278 249 239 232 229 225 221 219 221
223 217 221 225 227 231 235 239 241 238 236 236 236 232 231 232 237 243 243 242 257 277 282 275 274 281 290 296 299 299 299 300 304 308 306 295 283 282 289 296 297 296 297 299 300 303 305 306 307 307 305 308 315 318 315 312 314 319 321 323 325 327 329 328 323 327 337 342 344 348 351 351 351 353 356 350 309 262 242 232 227 223 219 217 217
216 219 224 227 229 233 238 240 241 238 236 234 230 227 228 231 236 241 240 246 273 293 287 278 282 291 297 300 302 301 302 304 305 306 302 292 284 285 290 295 297 296 295 298 299 302 305 307 307 305 306 312 316 313 308 308 314 320 322 324 328 332 333 328 322 327 342 350 350 352 354 354 354 357 360 358 331 265 250 236 228 224 219 215 213
213 220 226 230 233 235 237 239 239 237 232 227 226 227 228 230 235 236 238 259 290 298 286 281 290 296 299 301 302 302 305 305 301 298 294 289 288 292 296 297 297 298 300 303 303 302 303 304 306 307 310 312 312 306 303 307 314 318 321 324 329 332 332 327 325 333 350 357 355 355 357 358 358 0 2 2 354 284 259 251 231 226 222 215 210
211 218 223 228 229 230 233 234 231 229 226 224 224 225 227 230 230 233 255 284 297 294 285 288 293 295 297 299 299 301 303 301 297 297 295 291 291 298 303 303 302 304 304 303 302 300 299 302 306 310 310 310 308 304 304 311 316 318 321 326 329 331 331 329 330 341 356 3 0 357 358 1 2 3 4 5 6 333 258 268 238 225 222 215 209
195 203 210 217 221 224 225 225 225 225 223 223 225 227 229 231 236 254 281 294 293 287 285 286 287 290 294 295 295 296 299 299 299 298 296 296 297 302 308 309 308 307 305 302 300 299 300 304 308 307 305 306 307 306 309 315 319 319 323 328 329 333 337 334 334 345 358 5 5 0 360 3 4 5 7 10 16 30 217 245 239 224 219 211 207
203 209 217 230 238 237 233 231 231 226 221 223 230 235 237 246 264 283 292 285 274 276 277 275 279 284 288 291 293 296 297 298 297 295 294 298 302 306 311 311 308 306 305 304 304 304 304 304 299 296 300 305 308 311 315 319 321 324 330 331 331 338 345 342 341 348 356 4 7 4 2 3 5 8 12 16 22 32 86 198 205 211 211 207 205
242 236 235 244 254 255 250 241 231 223 223 230 242 251 260 269 277 281 275 262 262 266 264 269 279 284 287 292 295 294 293 291 291 291 293 297 302 308 312 311 308 307 306 307 309 308 304 297 290 291 298 302 305 311 316 321 325 333 340 340 340 348 353 350 350 352 354 0 6 6 5 5 6 10 16 20 23 28 38 123 185 192 200 206 211
255 246 249 262 266 259 251 244 236 236 241 248 257 268 273 271 266 258 252 255 260 261 265 274 282 285 289 293 291 289 288 286 285 288 292 297 303 309 311 310 311 312 310 311 313 309 299 293 290 292 293 297 304 312 323 334 343 351 356 355 358 2 2 360 0 358 353 355 3 7 8 8 8 11 16 20 24 28 33 43 105 187 198 207 216
257 272 279 280 274 261 253 250 247 248 249 252 257 260 256 252 251 248 248 254 260 266 273 279 282 286 290 291 287 283 281 282 283 287 294 301 306 309 310 311 315 319 317 311 306 302 299 299 302 306 308 310 317 327 346 7 16 16 9 4 5 7 5 4 6 4 358 355 360 5 11 13 11 11 14 19 23 28 32 37 44 65 157 197 211
277 289 286 274 267 260 250 239 231 230 234 237 238 238 240 243 246 248 253 261 268 273 279 282 285 289 289 286 281 275 272 276 280 285 295 305 307 310 313 316 322 330 329 315 305 305 308 311 318 330 340 347 354 359 7 12 10 6 3 360 360 2 2 3 6 5 2 1 360 1 10 17 17 14 15 17 21 25 29 34 38 44 52 62 83
254 222 244 247 246 244 236 224 215 214 223 233 236 238 242 244 245 252 260 267 272 276 283 288 291 291 288 281 275 269 268 274 280 287 296 302 304 310 314 317 326 334 334 323 316 317 322 329 340 357 12 21 15 4 359 357 354 354 358 359 357 357 358 1 3 3 2 4 3 0 7 17 21 21 20 19 19 22 25 29 34 38 42 46 48
183 186 207 217 217 219 220 218 220 223 227 235 240 240 242 244 247 255 261 264 270 278 286 293 294 290 285 280 277 275 274 276 281 286 288 296 305 312 315 319 328 334 333 331 329 330 338 346 357 12 11 0 356 350 344 344 346 349 354 357 356 357 0 2 3 1 1 5 7 5 7 15 22 24 24 23 21 20 20 23 28 32 35 38 42
188 195 210 216 214 213 214 218 224 223 222 228 235 237 241 246 250 255 258 261 269 278 287 291 288 285 287 288 282 277 270 268 282 292 299 312 322 321 318 321 325 329 332 332 325 322 331 337 337 339 332 330 337 340 336 336 340 344 352 358 0 2 5 5 4 2 2 5 8 11 14 16 18 21 24 26 26 23 19 19 23 27 28 31 36
216 206 214 223 225 227 231 233 232 226 224 228 233 236 242 246 251 255 258 262 269 276 281 281 274 273 281 281 255 230 228 316 336 341 338 333 330 318 313 317 320 325 332 333 321 312 318 317 316 321 322 324 332 334 329 337 347 353 0 7 8 8 6 5 5 6 6 5 6 9 15 20 21 23 26 28 28 28 25 21 21 24 26 26 30
213 204 210 221 226 229 232 230 227 228 231 232 231 232 238 243 248 252 256 260 266 269 269 269 266 265 269 267 252 273 337 348 345 345 343 338 331 314 304 308 313 320 328 331 319 306 303 296 304 320 328 333 346 353 348 355 4 5 4 7 11 11 6 2 4 7 8 9 9 9 13 22 27 30 33 32 29 29 30 26 21 22 24 25 26
201 200 206 216 224 228 228 224 222 226 231 233 233 232 231 236 246 254 260 263 261 257 258 259 257 256 259 258 262 308 338 343 337 333 330 330 335 332 314 305 306 309 314 311 286 265 248 244 269 317 338 338 342 355 359 0 5 5 1 0 4 6 2 358 358 0 3 8 13 15 16 20 24 28 33 34 31 28 29 30 27 24 24 29 31
200 207 214 221 228 232 233 232 230 230 232 234 234 230 225 231 244 251 255 260 260 253 247 244 247 255 260 258 270 319 330 324 320 320 317 316 328 340 331 309 298 279 247 225 216 209 204 221 261 316 347 347 350 353 352 352 354 352 348 348 352 354 354 351 350 353 358 4 10 17 22 24 24 24 28 32 32 28 25 27 30 29 27 32 39
225 231 231 234 237 235 234 236 236 237 235 232 232 234 237 244 252 252 249 252 254 248 236 234 242 256 265 274 297 313 307 287 277 289 294 300 316 328 318 275 229 211 205 204 207 207 206 225 271 325 337 337 339 336 332 334 338 336 334 337 340 340 340 340 340 343 351 359 6 15 24 29 27 25 25 30 32 30 26 26 29 31 29 28 35
251 244 239 246 249 245 244 244 241 239 238 235 237 244 247 248 252 252 249 243 233 225 225 234 246 259 273 288 302 301 282 256 244 254 267 282 303 311 289 235 204 197 198 208 228 241 242 256 282 305 319 325 324 322 325 328 329 329 331 332 332 332 330 331 333 336 342 353 6 17 25 30 31 26 24 29 32 31 28 27 28 31 35 31 29
254 243 244 256 261 256 250 242 237 237 239 242 246 248 246 246 248 247 244 236 221 212 218 233 248 265 278 292 306 296 264 243 236 245 260 274 290 292 257 218 209 211 218 234 253 261 260 267 281 297 311 319 319 319 325 328 327 331 337 337 336 336 335 338 346 350 350 356 7 17 27 31 30 26 24 28 32 32 30 29 29 32 39 42 38
248 247 250 256 257 251 242 233 232 235 237 239 239 234 229 233 236 234 237 236 223 216 227 246 266 282 289 303 324 313 264 241 233 237 254 268 278 260 218 214 226 243 256 262 269 271 266 266 280 299 311 317 317 317 323 328 330 337 347 350 351 352 350 356 7 8 5 8 13 19 30 34 31 26 27 30 32 34 33 32 31 32 36 44 49
247 245 247 248 244 241 236 231 232 235 236 235 234 228 221 223 227 232 238 240 232 232 248 270 286 293 297 310 329 327 269 238 228 228 247 270 284 274 231 232 247 262 276 284 286 283 276 275 289 303 311 315 315 315 320 329 338 349 358 6 13 12 7 13 21 17 15 23 26 24 33 40 37 32 34 38 39 38 37 35 34 32 34 40 48
249 238 238 239 237 236 236 233 232 233 232 230 229 226 221 220 226 233 238 235 231 247 265 275 280 284 291 305 324 332 303 257 232 218 228 256 287 310 210 272 301 295 294 294 290 287 282 281 290 300 305 307 311 317 328 338 349 3 13 19 27 27 20 25 33 27 22 33 38 36 42 47 41 37 42 48 48 45 43 41 38 35 35 38 42
247 231 229 237 244 246 243 239 235 231 230 231 232 232 232 229 229 232 229 218 223 252 264 266 268 274 284 298 313 321 312 289 262 243 231 214 171 59 335 322 323 311 299 295 300 301 292 283 285 295 300 303 313 334 353 352 357 16 27 30 35 37 31 33 38 34 28 33 39 40 48 52 45 39 42 51 53 50 48 45 42 39 38 38 40
252 242 236 244 254 252 245 240 238 238 240 242 240 241 243 237 228 223 216 209 224 248 254 254 261 271 283 296 309 316 310 295 297 311 255 205 187 188 282 279 277 284 292 301 310 309 297 283 282 289 293 299 320 353 8 359 3 19 29 31 36 39 36 34 34 31 31 35 37 38 47 52 48 39 39 48 54 53 49 46 44 44 43 43 43
246 249 246 246 253 249 226 211 215 220 224 220 214 218 222 211 201 205 216 223 231 239 241 247 263 274 283 294 305 314 312 289 2 15 10 189 183 181 203 243 238 249 282 302 305 303 292 274 269 276 282 295 329 359 4 0 4 11 17 21 23 26 31 31 28 24 25 30 30 29 39 50 49 41 35 41 50 52 50 48 47 46 48 50 50
232 239 231 207 218 225 188 192 207 208 195 193 195 202 207 203 202 214 230 238 241 241 244 255 266 270 275 284 293 304 338 14 310 340 352 16 172 179 193 221 237 257 278 287 290 291 289 276 264 266 271 295 342 349 349 355 357 356 1 7 9 10 16 22 21 17 17 19 18 14 19 37 47 42 33 32 39 44 45 47 49 48 50 53 55
242 245 241 247 258 246 216 214 235 245 233 228 227 224 224 227 228 230 238 248 249 247 251 262 263 259 262 270 272 249 183 174 254 289 298 262 201 201 212 224 244 267 276 274 273 277 278 277 280 277 278 302 350 339 334 348 351 345 346 351 351 351 359 9 11 8 8 11 10 6 6 19 34 36 29 27 31 34 36 43 49 50 50 54 56
240 240 245 262 256 242 229 233 247 258 264 264 252 238 235 243 247 247 254 260 258 256 262 266 255 245 249 255 248 220 201 207 217 244 252 234 218 219 229 239 256 269 272 271 274 275 263 255 266 278 286 306 352 1 334 336 338 332 332 337 338 336 341 351 357 356 358 3 5 359 358 12 26 29 23 21 27 30 29 33 44 50 50 53 58
193 221 248 256 248 243 247 253 257 261 266 268 259 247 245 251 257 262 267 265 260 258 260 255 240 234 235 229 217 210 222 233 224 219 229 233 230 237 251 262 263 254 252 262 279 289 284 282 287 290 296 311 342 0 345 333 330 326 323 323 325 325 326 331 338 341 342 347 353 352 354 9 22 24 18 19 26 29 23 24 36 51 54 52 56
209 244 268 263 256 255 255 251 249 256 264 267 265 259 253 253 261 268 270 265 259 255 247 227 215 218 227 232 228 223 224 224 214 212 229 243 249 253 261 270 260 231 231 249 269 275 282 294 295 295 301 313 333 347 344 334 326 322 319 314 311 312 313 313 317 321 325 332 338 342 350 6 15 12 8 13 24 30 24 23 35 55 62 57 55